Location: Canyam�s
(41.5996°N, 2.4450°E)
Time: 20:02:30
(UTC+00:00)

RESURS DK-1 - Visible Passes

Search period start: 29 September 2020 00:00
Search period end: 09 October 2020 00:00
Orbit: 553 x 564 km, 69.9° (Epoch: 29 September)

Date Brightness Start Highest point End Pass type
(mag) Time Alt. Az. Time Alt. Az. Time Alt. Az.
29 Sep 5.2 03:44:27 10° N 03:47:26 19° NE 03:50:24 10° E visible
29 Sep 2.4 19:19:47 10° SSW 19:23:55 80° WNW 19:28:05 10° NNE visible
30 Sep 4.7 03:42:20 10° N 03:45:45 24° NE 03:49:08 10° ESE visible
30 Sep 2.9 19:18:04 10° SW 19:22:08 58° WNW 19:26:15 10° NNE visible
01 Oct 4.2 03:40:19 10° N 03:44:02 30° ENE 03:47:45 10° ESE visible
01 Oct 3.6 19:16:25 10° SW 19:20:22 43° WNW 19:24:22 10° NNE visible
02 Oct 3.7 03:38:22 10° NNW 03:42:19 40° ENE 03:46:14 10° SE visible
02 Oct 3.9 05:17:15 10° WNW 05:20:00 17° WSW 05:22:45 10° SW visible
02 Oct 4.1 19:14:54 10° WSW 19:18:38 32° WNW 19:22:25 10° N visible
03 Oct 3.0 03:38:08 23° N 03:40:34 54° ENE 03:44:38 10° SE visible
03 Oct 4.2 05:16:12 10° WNW 05:18:05 13° WSW 05:19:57 10° SW visible
03 Oct 4.6 19:13:28 10° WSW 19:16:56 25° NW 19:20:24 10° N visible
04 Oct 2.9 03:39:43 51° SE 03:39:43 51° SE 03:42:55 10° SSE visible
04 Oct 5.0 19:12:10 10° W 19:15:14 20° NW 19:18:19 10° N visible
05 Oct 4.9 03:40:58 11° SSE 03:40:58 11° SSE 03:41:08 10° SSE visible
05 Oct 5.3 19:11:02 10° W 19:13:34 16° NW 19:16:07 10° NNW visible
06 Oct 5.5 19:10:13 10° WNW 19:11:56 12° NW 19:13:40 10° NNW visible
